Regional Weather Roundup
Issued by NWS Cleveland, OH

Home | Current Version | Previous Version | Graphics & Text | Print | Product List | Glossary On
Versions: 1 2 3 4 5 6 7 8 9 10 11 12 13 14 15 16 17 18 19 20 21 22 23 24 25 26 27 28 29 30 31 32 33 34 35 36 37 38 39 40 41 42 43 44 45 46 47 48 49 50
000
ASUS41 KCLE 181810
RWRCLE
OHIO REGIONAL WEATHER ROUNDUP
NATIONAL WEATHER SERVICE WILMINGTON, OH
200 PM EDT SAT APR 18 2015

NOTE: "FAIR" INDICATES FEW OR NO CLOUDS BELOW 12,000 FEET WITH NO
SIGNIFICANT WEATHER AND/OR OBSTRUCTIONS TO VISIBILITY.

OHZ001>008-015>018-024>027-034-035-043-044-181900-
   NORTHWEST OHIO

CITY           SKY/WX    TMP DP  RH WIND       PRES   REMARKS
DEFIANCE       MOSUNNY   77  49  37 E10       30.04R
FINDLAY        CLOUDY    76  47  35 E7        30.03S
TOLEDO EXPRESS MOSUNNY   77  47  34 E14       30.04S
TOLEDO EXEC    SUNNY     72  46  39 E13G23    30.07R
LIMA           PTSUNNY   76  49  38 N5        30.05R
$$

OHZ009>014-019>023-028>033-038-089-181900-
   NORTHEAST OHIO

CITY           SKY/WX    TMP DP  RH WIND       PRES   REMARKS
CLE-HOPKINS    SUNNY     69  44  40 N14       30.09S
CLE-LAKEFRONT  SUNNY     60  46  59 N7        30.07F
CUY CO. ARPT   MOSUNNY   68  46  45 N10G18    30.08F
LORAIN-ELYRIA  SUNNY     70  47  43 NE17G23   30.07S
ASHTABULA      SUNNY     67  43  41 NW10      30.08R
AKRON-CANTON   MOSUNNY   75  43  31 N9        30.04F
WOOSTER        PTSUNNY   72  46  39 N12       30.05F
MANSFIELD      MOSUNNY   76  42  29 N9        30.05F
YOUNGSTOWN     MOSUNNY   73  44  35 N14       30.05S
$$

OHZ042-051>053-060>062-070>072-077>081-181900-
  SOUTHWEST OHIO

CITY           SKY/WX    TMP DP  RH WIND       PRES   REMARKS
CINC-COVINGTON PTSUNNY   75  45  34 NE5       30.04F
CINC-LUNKEN    CLOUDY    76  48  37 VRB6      30.03F
HAMILTON       CLOUDY    77  50  38 VRB3      30.04F
DAYTON         CLOUDY    75  47  36 SW3       30.06F
WRIGHT-PAT AFB CLOUDY    76  46  34 E6        30.04F
DAYTON GENERAL CLOUDY    76  47  35 NE9       30.04F
WILMINGTON     PTSUNNY   74  47  38 E9        30.04F
$$

OHZ036-037-039>041-045>050-054>059-063>069-073>076-082>088-181900-
  CENTRAL AND SOUTHEAST OHIO

CITY           SKY/WX    TMP DP  RH WIND       PRES   REMARKS
COLUMBUS       CLOUDY    76  46  34 CALM      30.04R
OSU AIRPORT    PTSUNNY   76  46  34 W5        30.05R
BOLTON FIELD   SUNNY     73  46  38 CALM      30.06R
RICKENBACK AFB PTSUNNY   74  44  33 CALM      30.04R
NEWARK         MOSUNNY   78  41  26 E6        30.03S
MARION         MOSUNNY   76  46  34 NE7       30.05S
LANCASTER      MOSUNNY   76  45  33 E5        30.05R
ZANESVILLE     SUNNY     75  41  29 NE9       30.03F
NEW PHILLY     SUNNY     79  42  26 N12G21    30.03F
$$


USA.gov is the U.S. government's official web portal to all federal, state and local government web resources and services.